Notices

What's New in latest Release from April 7th, 2021:

- Updated Glossary, including Speed of Maximum Gust, and Total Hourly Precipitation

- Updated national and regional climate services offices contacts and prices information

- Addition of station inventory lists for 1981-2010, 1971-2000, and 1961-1990 Normals.

If you haven't already, please take our survey and provide feedback about our website: https://eccc.sondage-survey.ca/f/LanguageSelection.aspx?s=442ca660-fcf1-47c0-95a9-59707d6fd709

Hourly Data Report for December 27, 2019

CARBERRY CS
MANITOBA
Current Station Operator: ECCC - MSC

49°54'20.900" N
99°21'26.800" W
383.50 m
5010547
71170
WZE

Download Data

Hourly Data (December 2019)
Hourly Data Report for December 27, 2019
TIME
LST
Temp Definition
°C
Dew Point Definition
°C
Rel Hum Definition
%
Precip. Amount Definition
mm

Wind Dir Definition
10's deg

Wind Spd Definition
km/h
Visibility Definition
km
Stn Press Definition
kPa
Hmdx Definition


Wind Chill Definition


Weather Definition


00:00 -10.3 -12.7 82 0.0 24 15   96.72   -17 LegendNANA
01:00 -10.4 -13.1 80 0.0 24 16   96.69   -17 LegendNANA
02:00 -10.5 -13.4 79 0.0 23 16   96.66   -18 LegendNANA
03:00 -10.8 -13.8 78 0.0 23 14   96.69   -17 LegendNANA
04:00 -10.9 -14.2 77 0.0 23 14   96.71   -18 LegendNANA
05:00 -10.4 -13.9 76 0.0 23 18   96.67   -18 LegendNANA
06:00 -9.3 -12.9 75 0.0 23 22   96.62   -17 LegendNANA
07:00 -8.9 -12.3 77 0.0 24 17   96.65   -16 LegendNANA
08:00 -8.8 -11.8 79 0.0 24 18   96.65   -16 LegendNANA
09:00 -8.0 -11.7 75 0.0 24 20   96.65   -15 LegendNANA
10:00 -7.0 -11.6 70 0.0 23 15   96.65   -13 LegendNANA
11:00 -5.2 -10.6 66 0.0 23 25   96.63   -13 LegendNANA
12:00 -4.0 -9.6 65 0.0 24 19   96.56   -10 LegendNANA
13:00 -3.4 -9.0 65 0.0 24 21   96.50   -10 LegendNANA
14:00 -2.5 -8.6 63 0.0 23 19   96.44   -8 LegendNANA
15:00 -2.7 -9.3 60 0.0 23 19   96.45   -8 LegendNANA
16:00 -3.1 -9.5 61 0.0 23 27   96.44   -10 LegendNANA
17:00 -3.9 -8.8 69 0.0 23 19   96.49   -10 LegendNANA
18:00 -4.9 -8.8 74 0.0 22 14   96.52   -10 LegendNANA
19:00 -4.6 -8.7 73 0.0 23 18   96.49   -11 LegendNANA
20:00 -5.2 -9.1 74 0.0 22 15   96.51   -11 LegendNANA
21:00 -5.5 -9.5 73 0.0 23 17   96.55   -12 LegendNANA
22:00 -6.3 -10.2 74 0.0 22 15   96.58   -12 LegendNANA
23:00 -5.8 -10.0 72 0.0 24 20   96.58   -13 LegendNANA

Notes on Data Quality.

Legend

  • E = Estimated
  • M = Missing
  • NA = Not Available*
  • [empty] = Indicates an unobserved value
Date modified: